M I D A S
Marine Information and Data Acquisition System
Tripno 337 of the Zeeleeuw from 2002-09-18 06:45:45 to 2002-09-18 13:57:39
Back to CruiseResearch ActivitiesStationsMapUnderway DataData graphs

EquipmentUnitsComment
TimeDGPSUTC
LatitudeDGPSDM.mWGS84
LongitudeDGPSDM.mWGS84
HeadingGyrodeg 
SOGDGPSknotsSpeed over ground
COGDGPSdegCourse over ground
DepthEcho soundermeters200 kHz
Missing or incorrect values are displayed as -999
Navigation data collected by the RV Zeeleeuw from 2002-09-18 06:45:45 to 2002-09-18 13:57:39
                                                                                    Next 1000 lines
Time Latitude Longitude Heading SOG COG Depth
2002-09-18 06:45:55 51°13.767 2°55.661 339.5 1.5 332.3 10.7
2002-09-18 06:46:00 51°13.769 2°55.66 339.8 1.6 333.1 10.6
2002-09-18 06:46:05 51°13.771 2°55.658 340 1.6 333.6 10.8
2002-09-18 06:46:10 51°13.773 2°55.656 340 1.7 333.7 10.8
2002-09-18 06:46:14 51°13.775 2°55.655 340 1.8 334.2 10.7
2002-09-18 06:46:20 51°13.777 2°55.653 339.8 1.9 334 10.8
2002-09-18 06:46:25 51°13.78 2°55.65 339.8 1.9 333.8 10.6
2002-09-18 06:46:30 51°13.783 2°55.649 340 2 333.8 10.6
2002-09-18 06:46:34 51°13.785 2°55.647 340.2 2.1 334.3 10.3
2002-09-18 06:46:40 51°13.788 2°55.645 340.5 2.2 334.7 10.7
2002-09-18 06:46:45 51°13.791 2°55.643 340.7 2.2 335.3 10.8
2002-09-18 06:46:50 51°13.794 2°55.641 340.7 2.3 335.4 10.7
2002-09-18 06:46:54 51°13.797 2°55.639 340.5 2.3 335.5 10.7
2002-09-18 06:47:00 51°13.8 2°55.637 340.7 2.4 335.1 10.6
2002-09-18 06:47:05 51°13.803 2°55.634 341.2 2.4 335.2 10.5
2002-09-18 06:47:09 51°13.806 2°55.632 341.5 2.5 335.4 10.3
2002-09-18 06:47:14 51°13.809 2°55.63 341.8 2.6 336.5 10.3
2002-09-18 06:47:20 51°13.813 2°55.627 341.8 2.7 336.7 10.3
2002-09-18 06:47:25 51°13.817 2°55.624 342 2.8 336.9 10.3
2002-09-18 06:47:30 51°13.821 2°55.622 342.2 2.9 337.4 10.2
2002-09-18 06:47:34 51°13.824 2°55.62 342.2 3 338.2 10.1
2002-09-18 06:47:40 51°13.828 2°55.616 342 3.2 338 10
2002-09-18 06:47:45 51°13.833 2°55.614 342 3.3 338 9.8
2002-09-18 06:47:50 51°13.838 2°55.611 342.2 3.4 337.6 9.7
2002-09-18 06:47:54 51°13.842 2°55.609 342.3 3.6 338.1 9.6
2002-09-18 06:48:00 51°13.848 2°55.605 342.3 3.8 337.9 9.5
2002-09-18 06:48:05 51°13.853 2°55.601 342.5 4 338.1 9.8
2002-09-18 06:48:09 51°13.857 2°55.598 342.7 4.1 338.2 10.1
2002-09-18 06:48:15 51°13.863 2°55.594 342.8 4.2 338.7 10.3
2002-09-18 06:48:20 51°13.869 2°55.59 342.5 4.4 338.7 10.3
2002-09-18 06:48:25 51°13.875 2°55.587 342.2 4.5 338.5 10.7
2002-09-18 06:48:30 51°13.882 2°55.582 342 4.8 338.3 10.1
2002-09-18 06:48:34 51°13.887 2°55.579 341.8 5.1 338.3 9.7
2002-09-18 06:48:40 51°13.896 2°55.573 342 5.4 338 10.2
2002-09-18 06:48:45 51°13.903 2°55.569 342.5 5.5 338.5 10.3
2002-09-18 06:48:49 51°13.909 2°55.565 343.3 5.7 339.2 10.4
2002-09-18 06:48:55 51°13.918 2°55.56 344.3 5.9 339.7 10.6
2002-09-18 06:48:59 51°13.925 2°55.556 344.7 6.1 340.3 10.5
2002-09-18 06:49:05 51°13.935 2°55.551 344.2 6.2 340.6 10.7
2002-09-18 06:49:10 51°13.943 2°55.546 344.2 6.3 340.6 10.3
2002-09-18 06:49:14 51°13.95 2°55.542 344.3 6.4 340.9 10.6
2002-09-18 06:49:20 51°13.96 2°55.537 344.3 6.5 341 10.4
2002-09-18 06:49:25 51°13.969 2°55.532 343.8 6.6 340.7 10.3
2002-09-18 06:49:30 51°13.978 2°55.526 343.5 6.7 340.3 10.7
2002-09-18 06:49:34 51°13.985 2°55.522 343.7 6.8 339.9 10.2
2002-09-18 06:49:40 51°13.996 2°55.516 344 6.9 339.8 10
2002-09-18 06:49:45 51°14.005 2°55.51 343.5 6.9 339.7 10.2
2002-09-18 06:49:50 51°14.014 2°55.505 343 7 339.2 10.4
2002-09-18 06:49:54 51°14.021 2°55.5 343.3 7 339.1 10.4
2002-09-18 06:50:00 51°14.032 2°55.494 343.2 7 338.9 10.5
2002-09-18 06:50:05 51°14.041 2°55.488 342.7 7 338.8 10.5
2002-09-18 06:50:10 51°14.05 2°55.482 342.3 7.1 338.3 10.8
2002-09-18 06:50:14 51°14.058 2°55.478 342.2 7.1 337.9 10.4
2002-09-18 06:50:18 51°14.065 2°55.472 341.5 7.1 336.8 10.3
2002-09-18 06:50:25 51°14.078 2°55.463 340 7.1 335.3 9.9
2002-09-18 06:50:30 51°14.086 2°55.456 339.3 7.1 334.3 10.2
2002-09-18 06:50:33 51°14.092 2°55.452 340.8 7.2 334.6 -999
2002-09-18 06:50:41 51°14.106 2°55.442 341.5 7.2 336.3 -999
2002-09-18 06:50:45 51°14.114 2°55.437 341 7.2 336.5 10.4
2002-09-18 06:50:50 51°14.123 2°55.431 340 7.3 336.5 10.6
2002-09-18 06:50:54 51°14.13 2°55.425 338.8 7.3 334.9 10.4
2002-09-18 06:51:00 51°14.141 2°55.416 336.8 7.3 333.8 10.4
2002-09-18 06:51:05 51°14.15 2°55.408 334.8 7.3 331.7 10.8
2002-09-18 06:51:10 51°14.159 2°55.4 333.2 7.3 330.2 10.4
2002-09-18 06:51:15 51°14.168 2°55.391 331.5 7.4 328.2 10.4
2002-09-18 06:51:20 51°14.176 2°55.382 329.7 7.4 326.4 10.6
2002-09-18 06:51:25 51°14.184 2°55.372 328 7.4 324.8 10.4
2002-09-18 06:51:30 51°14.192 2°55.362 326.8 7.4 323.5 10.4
2002-09-18 06:51:34 51°14.199 2°55.354 325.5 7.4 322.4 10.4
2002-09-18 06:51:40 51°14.208 2°55.341 324.3 7.4 321 10.4
2002-09-18 06:51:45 51°14.216 2°55.33 322.8 7.4 319.9 10.4
2002-09-18 06:51:50 51°14.223 2°55.319 321.5 7.4 318.6 10.5
2002-09-18 06:51:53 51°14.228 2°55.312 320.2 7.4 317.2 10.5
2002-09-18 06:52:00 51°14.238 2°55.296 318.7 7.4 315.5 10.5
2002-09-18 06:52:05 51°14.245 2°55.284 317.7 7.4 314.4 10.5
2002-09-18 06:52:09 51°14.25 2°55.275 316.8 7.4 313 10.5
2002-09-18 06:52:14 51°14.257 2°55.263 316.2 7.4 312.7 10.5
2002-09-18 06:52:20 51°14.265 2°55.248 315.3 7.4 311.9 10.4
2002-09-18 06:52:25 51°14.272 2°55.236 314.2 7.4 310.9 10.5
2002-09-18 06:52:29 51°14.277 2°55.226 313.7 7.4 309.9 10.5
2002-09-18 06:52:34 51°14.284 2°55.213 314.3 7.4 309.6 10.5
2002-09-18 06:52:40 51°14.292 2°55.198 314.5 7.4 310 10.5
2002-09-18 06:52:45 51°14.299 2°55.185 314 7.6 310.2 10.5
2002-09-18 06:52:50 51°14.306 2°55.171 313.2 7.9 309.7 10.5
2002-09-18 06:52:55 51°14.313 2°55.157 312.2 8.2 308.6 10.4
2002-09-18 06:52:59 51°14.319 2°55.145 311.2 8.4 307.5 10.3
2002-09-18 06:53:05 51°14.327 2°55.126 310.7 8.5 306.9 10.3
2002-09-18 06:53:09 51°14.333 2°55.113 310.2 8.7 306 10.2
2002-09-18 06:53:15 51°14.342 2°55.094 309.7 8.8 305.7 10.1
2002-09-18 06:53:18 51°14.346 2°55.084 309.5 9 305.6 10.8
2002-09-18 06:53:25 51°14.356 2°55.062 309.8 9 306.1 10.6
2002-09-18 06:53:29 51°14.362 2°55.049 310.5 9 306.3 10.3
2002-09-18 06:53:35 51°14.372 2°55.029 310 9.3 306.1 10.1
2002-09-18 06:53:40 51°14.379 2°55.011 309.2 9.6 305 9.8
2002-09-18 06:53:45 51°14.387 2°54.992 308.2 9.8 303.8 10
2002-09-18 06:53:50 51°14.394 2°54.973 306 10 302.5 10
2002-09-18 06:53:54 51°14.4 2°54.957 303.8 10.3 299.6 10
2002-09-18 06:53:58 51°14.404 2°54.94 302 10.4 296.5 10
2002-09-18 06:54:05 51°14.413 2°54.91 300.5 10.6 294.9 10
2002-09-18 06:54:10 51°14.419 2°54.888 300.3 10.8 294 10
2002-09-18 06:54:14 51°14.424 2°54.87 299.2 11.1 293 10
2002-09-18 06:54:20 51°14.431 2°54.843 298 11.2 292.1 9.9
2002-09-18 06:54:25 51°14.437 2°54.82 298 11.2 292 10
2002-09-18 06:54:30 51°14.443 2°54.797 299.3 11.2 292.8 10
2002-09-18 06:54:34 51°14.449 2°54.779 301.8 11.2 295.1 10
2002-09-18 06:54:40 51°14.458 2°54.753 305.3 11.3 297.8 9.9
2002-09-18 06:54:45 51°14.467 2°54.733 309.2 11.3 300.8 10.1
2002-09-18 06:54:50 51°14.476 2°54.713 312.7 11.3 304.5 10
2002-09-18 06:54:54 51°14.484 2°54.697 314.7 11.3 307.4 9.8
2002-09-18 06:54:58 51°14.492 2°54.682 316.5 11.3 308.9 10.1
2002-09-18 06:55:05 51°14.506 2°54.655 317.8 11.3 310.4 10.1
2002-09-18 06:55:10 51°14.516 2°54.636 318.8 11.3 311.5 10.1
2002-09-18 06:55:14 51°14.525 2°54.622 320.5 11.3 312.9 10.1
2002-09-18 06:55:20 51°14.539 2°54.601 322.8 11.4 315.2 10.1
2002-09-18 06:55:25 51°14.551 2°54.584 325 11.5 316.8 10.1
2002-09-18 06:55:30 51°14.563 2°54.567 327 11.6 319.1 10.1
2002-09-18 06:55:34 51°14.573 2°54.554 329.2 11.7 320.7 10.1
2002-09-18 06:55:40 51°14.59 2°54.537 333.2 11.8 324.4 10.1
2002-09-18 06:55:45 51°14.604 2°54.525 338.3 11.8 328.2 10.1
2002-09-18 06:55:50 51°14.619 2°54.515 344.5 11.8 333.5 10.1
2002-09-18 06:55:53 51°14.628 2°54.51 348.8 11.8 339.8 10
2002-09-18 06:56:00 51°14.651 2°54.499 351 11.8 342.8 10
2002-09-18 06:56:05 51°14.667 2°54.493 353.5 11.9 345.3 10.1
2002-09-18 06:56:10 51°14.683 2°54.488 355.8 11.9 347 10
2002-09-18 06:56:15 51°14.699 2°54.484 358 11.9 349.7 10.1
2002-09-18 06:56:20 51°14.716 2°54.48 358.3 12 350.8 10.1
2002-09-18 06:56:25 51°14.732 2°54.476 358.3 12 351.1 9.9
2002-09-18 06:56:29 51°14.745 2°54.473 358.5 12 351.4 9.9
2002-09-18 06:56:34 51°14.762 2°54.469 359.2 12 351.7 9.9
2002-09-18 06:56:40 51°14.782 2°54.465 359.3 12 352 9.8
2002-09-18 06:56:45 51°14.798 2°54.461 359.2 12 351.9 9.7
2002-09-18 06:56:49 51°14.811 2°54.458 358.7 12 351.4 9.5
2002-09-18 06:56:53 51°14.824 2°54.455 358.3 12 351 9.4
2002-09-18 06:57:00 51°14.847 2°54.448 357.5 12 350.3 9.4
2002-09-18 06:57:05 51°14.864 2°54.444 357.2 12 350.1 9.2
2002-09-18 06:57:10 51°14.88 2°54.439 356.8 12.1 350 9.2
2002-09-18 06:57:15 51°14.896 2°54.433 356.3 12 349.2 9.1
2002-09-18 06:57:20 51°14.913 2°54.428 356 12 348.9 9
2002-09-18 06:57:25 51°14.929 2°54.423 355.7 11.9 348.3 8.9
2002-09-18 06:57:30 51°14.945 2°54.417 355.3 11.9 347.9 8.8
2002-09-18 06:57:34 51°14.958 2°54.412 354.8 11.9 347.1 8.7
2002-09-18 06:57:40 51°14.977 2°54.404 353.2 11.9 346.2 8.7
2002-09-18 06:57:45 51°14.993 2°54.397 352.7 11.9 345.4 8.6
2002-09-18 06:57:50 51°15.009 2°54.391 353.5 11.9 345.6 8.5
2002-09-18 06:57:54 51°15.022 2°54.387 356 11.9 347.8 8.5
2002-09-18 06:58:00 51°15.042 2°54.383 359.7 11.8 350.5 8.5
2002-09-18 06:58:05 51°15.058 2°54.383 4 11.7 354.8 8.5
2002-09-18 06:58:10 51°15.074 2°54.384 8.2 11.6 359 8.6
2002-09-18 06:58:14 51°15.086 2°54.385 10 11.5 2.6 8.5
2002-09-18 06:58:20 51°15.105 2°54.386 10.3 11.5 3.2 8.5
2002-09-18 06:58:25 51°15.122 2°54.388 10.3 11.5 3.1 8.7
2002-09-18 06:58:29 51°15.134 2°54.389 10.2 11.6 3 8.6
2002-09-18 06:58:34 51°15.15 2°54.39 9.7 11.6 3.1 8.7
2002-09-18 06:58:40 51°15.17 2°54.392 10.3 11.6 3.1 8.8
2002-09-18 06:58:45 51°15.186 2°54.396 13.5 11.6 5.7 8.7
2002-09-18 06:58:50 51°15.201 2°54.4 17.2 11.6 8.2 8.8
2002-09-18 06:58:55 51°15.217 2°54.407 20.7 11.5 12.9 8.7
2002-09-18 06:58:59 51°15.229 2°54.412 21.8 11.5 14.3 8.9
2002-09-18 06:59:05 51°15.248 2°54.42 22.2 11.5 15.4 8.8
2002-09-18 06:59:10 51°15.263 2°54.426 21.5 11.5 15.3 8.8
2002-09-18 06:59:14 51°15.276 2°54.432 21 11.5 14.5 9
2002-09-18 06:59:20 51°15.294 2°54.439 20.7 11.5 14.2 8.9
2002-09-18 06:59:25 51°15.309 2°54.446 22.5 11.5 15 8.9
2002-09-18 06:59:30 51°15.324 2°54.455 24.8 11.4 16.9 8.7
2002-09-18 06:59:33 51°15.333 2°54.461 27.7 11.4 20.9 9
2002-09-18 06:59:40 51°15.353 2°54.476 30.8 11.4 24.2 9
2002-09-18 06:59:45 51°15.366 2°54.488 33.7 11.4 26.7 9
2002-09-18 06:59:49 51°15.377 2°54.498 36.8 11.3 30.4 8.9
2002-09-18 06:59:54 51°15.39 2°54.513 40.7 11.3 33.2 9.2
2002-09-18 07:00:00 51°15.405 2°54.531 41.5 11.3 36.2 9.2
2002-09-18 07:00:05 51°15.417 2°54.546 42.5 11.3 37.6 9.2
2002-09-18 07:00:10 51°15.429 2°54.561 43 11.3 37.8 9.2
2002-09-18 07:00:14 51°15.439 2°54.574 43 11.3 38.2 9.2
2002-09-18 07:00:20 51°15.454 2°54.592 42.2 11.3 37.2 9
2002-09-18 07:00:24 51°15.464 2°54.604 41.8 11.3 36.5 9.1
2002-09-18 07:00:29 51°15.477 2°54.618 40 11.3 34.8 9.3
2002-09-18 07:00:35 51°15.493 2°54.635 39 11.4 34 9.2
2002-09-18 07:00:40 51°15.506 2°54.648 37 11.4 32.7 9.2
2002-09-18 07:00:45 51°15.52 2°54.662 38.8 11.4 33 9.5
2002-09-18 07:00:49 51°15.53 2°54.674 41 11.4 34.3 9.5
2002-09-18 07:00:55 51°15.544 2°54.694 44.8 11.4 39 9.4
2002-09-18 07:01:00 51°15.555 2°54.711 48.5 11.4 42 9.4
2002-09-18 07:01:05 51°15.565 2°54.731 53.8 11.3 46.6 9.5
2002-09-18 07:01:10 51°15.574 2°54.751 56.5 11.2 50.8 9.5
2002-09-18 07:01:13 51°15.58 2°54.763 57.5 11.3 53.6 9.2
2002-09-18 07:01:20 51°15.593 2°54.791 57.3 11.3 53.9 9.4
2002-09-18 07:01:25 51°15.602 2°54.811 56.5 11.3 53.2 9.4
2002-09-18 07:01:30 51°15.612 2°54.831 56.3 11.4 52.8 9.3
2002-09-18 07:01:35 51°15.623 2°54.85 54.8 11.5 51.7 9.3
2002-09-18 07:01:40 51°15.632 2°54.871 55.7 11.7 51.8 9.3
2002-09-18 07:01:42 51°15.637 2°54.879 54.7 11.8 51.2 9.3
2002-09-18 07:01:50 51°15.653 2°54.912 54.8 12 51.6 9.2
2002-09-18 07:01:55 51°15.664 2°54.933 54.7 12.1 51.3 9.2
2002-09-18 07:02:00 51°15.674 2°54.954 55.8 12.2 51.5 9.2
2002-09-18 07:02:09 51°15.693 2°54.993 55.7 12.3 52.1 9.2
2002-09-18 07:02:13 51°15.701 2°55.01 55.8 12.4 51.9 9.2
2002-09-18 07:02:18 51°15.712 2°55.032 56.2 12.4 52.1 9.3
2002-09-18 07:02:21 51°15.718 2°55.045 55.8 12.5 51.8 9.3
2002-09-18 07:02:29 51°15.735 2°55.08 55.7 12.6 52.3 9.3
2002-09-18 07:02:34 51°15.746 2°55.102 55.5 12.7 52.2 9.2
2002-09-18 07:02:39 51°15.757 2°55.124 55.5 12.7 52 9.2
2002-09-18 07:02:44 51°15.768 2°55.147 56.3 12.8 52.4 9.3
2002-09-18 07:02:49 51°15.779 2°55.169 55.8 12.8 52.4 9.3
2002-09-18 07:02:53 51°15.788 2°55.187 56.5 12.8 51.9 9.3
2002-09-18 07:02:59 51°15.801 2°55.214 56.7 12.8 52.4 9.3
2002-09-18 07:03:04 51°15.811 2°55.237 57 12.8 52.8 9.3
2002-09-18 07:03:09 51°15.822 2°55.26 57 12.8 53.1 9.3
2002-09-18 07:03:13 51°15.83 2°55.278 56.7 12.9 53 9.3
2002-09-18 07:03:19 51°15.843 2°55.305 57.2 12.9 53.6 9.3
2002-09-18 07:03:25 51°15.856 2°55.333 57.2 12.9 53.5 9.3
2002-09-18 07:03:29 51°15.864 2°55.351 57.2 12.9 53.4 9.3
2002-09-18 07:03:32 51°15.871 2°55.365 57 12.9 53.1 9.3
2002-09-18 07:03:39 51°15.886 2°55.397 56.8 12.9 53.4 9.4
2002-09-18 07:03:44 51°15.897 2°55.42 57 12.9 52.8 9.4
2002-09-18 07:03:49 51°15.907 2°55.443 57 12.9 53.6 9.3
2002-09-18 07:03:53 51°15.916 2°55.461 56.5 13 52.8 9.3
2002-09-18 07:03:57 51°15.925 2°55.48 56.5 13 52.9 9.3
2002-09-18 07:04:04 51°15.94 2°55.511 57 12.9 52.9 9.2
2002-09-18 07:04:09 51°15.951 2°55.534 57 13 53.2 9.2
2002-09-18 07:04:13 51°15.96 2°55.553 57.7 13 53.3 9.3
2002-09-18 07:04:19 51°15.972 2°55.581 58.2 13 54.4 9.3
2002-09-18 07:04:23 51°15.981 2°55.599 59 13 54.6 9.2
2002-09-18 07:04:29 51°15.992 2°55.628 59.5 13 55.7 9.3
2002-09-18 07:04:33 51°16.001 2°55.647 59.5 13 56 9.3
2002-09-18 07:04:39 51°16.013 2°55.677 59.8 13.1 55.9 9.3
2002-09-18 07:04:44 51°16.023 2°55.7 60.2 13 56.3 9.4
2002-09-18 07:04:49 51°16.032 2°55.725 61.5 12.9 57.1 9.3
2002-09-18 07:04:54 51°16.042 2°55.749 59.7 13 57.5 9.4
2002-09-18 07:04:58 51°16.05 2°55.769 60.7 13.2 57.2 9.4
2002-09-18 07:05:02 51°16.058 2°55.788 60 13.1 56.3 9.4
2002-09-18 07:05:09 51°16.071 2°55.822 60.7 13 57.1 9.5
2002-09-18 07:05:13 51°16.079 2°55.841 60.7 13 57 9.5
2002-09-18 07:05:18 51°16.089 2°55.866 60.2 13.1 57 9.5
2002-09-18 07:05:22 51°16.097 2°55.885 60.3 13.2 56.2 9.5
2002-09-18 07:05:29 51°16.111 2°55.919 61 13.1 56.6 9.4
2002-09-18 07:05:33 51°16.119 2°55.938 60.5 13 56.4 9.4
2002-09-18 07:05:38 51°16.128 2°55.964 60.3 13.1 57.2 9.4
2002-09-18 07:05:44 51°16.141 2°55.992 59 13.2 55.9 9.5
2002-09-18 07:05:49 51°16.151 2°56.016 59.8 13.2 56.3 9.5
2002-09-18 07:05:54 51°16.161 2°56.039 60 13 56.2 9.5
2002-09-18 07:05:58 51°16.17 2°56.059 60.3 13.1 56.6 9.5
2002-09-18 07:06:04 51°16.182 2°56.088 60 13.2 56.8 9.5
2002-09-18 07:06:09 51°16.191 2°56.112 59.8 13.2 56.4 9.4
2002-09-18 07:06:14 51°16.201 2°56.137 59.8 13.1 57 9.1
2002-09-18 07:06:19 51°16.211 2°56.16 60.3 13.1 56.8 9.4
2002-09-18 07:06:22 51°16.217 2°56.175 60.7 13.1 56.8 9.5
2002-09-18 07:06:29 51°16.231 2°56.21 60.7 13.2 56.8 9.6
2002-09-18 07:06:34 51°16.241 2°56.234 60 13.2 56.6 9.7
2002-09-18 07:06:39 51°16.251 2°56.258 60.3 13.1 56.8 9.7
2002-09-18 07:06:44 51°16.262 2°56.281 60.3 13.1 56.7 9.7
2002-09-18 07:06:48 51°16.27 2°56.301 60 13.1 56.4 9.7
2002-09-18 07:06:53 51°16.28 2°56.325 59.5 13.2 55.7 9.7
2002-09-18 07:06:59 51°16.293 2°56.354 59.5 13.2 56 9.5
2002-09-18 07:07:04 51°16.303 2°56.378 59.7 13.2 55.5 9.6
2002-09-18 07:07:09 51°16.313 2°56.402 59.7 13.1 56.2 9.7
2002-09-18 07:07:13 51°16.321 2°56.421 59.8 13.1 56.1 9.7
2002-09-18 07:07:19 51°16.333 2°56.451 60.5 13.2 56.7 9.7
2002-09-18 07:07:22 51°16.339 2°56.465 60.3 13.3 56.4 9.6
2002-09-18 07:07:29 51°16.353 2°56.5 60.5 13.2 56.6 9.6
2002-09-18 07:07:33 51°16.361 2°56.519 60.7 13.2 57 9.7
2002-09-18 07:07:38 51°16.37 2°56.544 61.2 13.2 57.8 9.5
2002-09-18 07:07:44 51°16.382 2°56.573 60.8 13.3 57.5 9.5
2002-09-18 07:07:49 51°16.392 2°56.598 61.2 13.3 58 9.5
2002-09-18 07:07:53 51°16.4 2°56.618 61.5 13.2 57.8 9.6
2002-09-18 07:07:58 51°16.41 2°56.642 61.8 13.2 58.1 9.6
2002-09-18 07:08:02 51°16.417 2°56.662 62.2 13.2 58.2 9.6
2002-09-18 07:08:09 51°16.43 2°56.697 62.2 13.2 58.1 9.7
2002-09-18 07:08:13 51°16.438 2°56.717 62 13.1 58.2 9.5
2002-09-18 07:08:18 51°16.448 2°56.742 61.7 13.1 58 9.6
2002-09-18 07:08:23 51°16.458 2°56.766 60.8 13.2 57.5 9.5
2002-09-18 07:08:29 51°16.47 2°56.795 60.2 13.2 56.8 9.5
2002-09-18 07:08:33 51°16.478 2°56.815 60.8 13.1 56.5 9.6
2002-09-18 07:08:39 51°16.49 2°56.844 60.5 13 56.5 9.6
2002-09-18 07:08:42 51°16.496 2°56.859 60.3 13.1 56.4 9.6
2002-09-18 07:08:49 51°16.509 2°56.892 60.5 13.1 56.1 9.4
2002-09-18 07:08:54 51°16.519 2°56.916 61.2 13.1 56.4 9.4
2002-09-18 07:08:58 51°16.527 2°56.936 60.8 13.1 57.2 9.5
2002-09-18 07:09:02 51°16.535 2°56.955 62 13 57.7 9.5
2002-09-18 07:09:09 51°16.548 2°56.99 62.3 13 58.4 9.3
2002-09-18 07:09:13 51°16.555 2°57.01 63 13 58.9 9.5
2002-09-18 07:09:18 51°16.564 2°57.035 63.3 13.1 59.6 9.6
2002-09-18 07:09:23 51°16.573 2°57.06 64 13.1 60.6 9.6
2002-09-18 07:09:29 51°16.584 2°57.09 63.8 13.1 60.1 9.6
2002-09-18 07:09:34 51°16.593 2°57.115 64 13 60.6 9.4
2002-09-18 07:09:39 51°16.601 2°57.14 64.3 13 60.5 9.6
2002-09-18 07:09:42 51°16.607 2°57.155 64.8 12.9 60.5 9.5
2002-09-18 07:09:49 51°16.619 2°57.19 63.8 13 60.1 9.5
2002-09-18 07:09:53 51°16.626 2°57.21 64 13 59.9 9.5
2002-09-18 07:09:59 51°16.637 2°57.24 63.3 13 59.8 9.5
2002-09-18 07:10:02 51°16.643 2°57.255 63.2 13 60 9.5
2002-09-18 07:10:09 51°16.656 2°57.29 62.5 13.1 59.5 9.6
2002-09-18 07:10:13 51°16.663 2°57.31 63.2 13 59.9 9.5
2002-09-18 07:10:19 51°16.674 2°57.339 62.8 13 59.5 9.6
2002-09-18 07:10:23 51°16.681 2°57.36 63.5 13.1 60.4 9.6
2002-09-18 07:10:29 51°16.692 2°57.39 63 13.1 60.1 9.6
2002-09-18 07:10:33 51°16.7 2°57.41 63 13.2 59.5 9.6
2002-09-18 07:10:39 51°16.711 2°57.44 62.7 13.1 59.3 9.7
2002-09-18 07:10:44 51°16.72 2°57.465 62.7 13.1 59.3 9.5
2002-09-18 07:10:49 51°16.729 2°57.489 62.7 13.1 59.1 9.6
2002-09-18 07:10:54 51°16.739 2°57.515 62.7 13.1 59.3 9.6
2002-09-18 07:10:58 51°16.746 2°57.534 62.2 13.2 58.7 9.5
2002-09-18 07:11:02 51°16.754 2°57.554 62.2 13.2 59.1 9.5
2002-09-18 07:11:09 51°16.767 2°57.589 62.3 13.1 58.9 9.4
2002-09-18 07:11:14 51°16.776 2°57.614 62.7 13.1 59.3 9.2
2002-09-18 07:11:18 51°16.784 2°57.634 63.3 13.2 59.7 9.3
2002-09-18 07:11:23 51°16.793 2°57.659 63.3 13.3 59.6 9.4
2002-09-18 07:11:29 51°16.804 2°57.69 63.5 13.3 60.2 9.3
2002-09-18 07:11:33 51°16.811 2°57.711 63.5 13.3 60.1 9.4
2002-09-18 07:11:38 51°16.82 2°57.737 64 13.2 61 9.4
2002-09-18 07:11:42 51°16.827 2°57.757 64.5 13.2 60.8 9.4
2002-09-18 07:11:49 51°16.839 2°57.793 64.3 13.2 61.5 9.5
2002-09-18 07:11:53 51°16.846 2°57.813 64.5 13.2 60.7 9.4
2002-09-18 07:11:58 51°16.855 2°57.839 64.3 13.2 60.8 9.4
2002-09-18 07:12:02 51°16.862 2°57.859 64.7 13.1 60.9 9.4
2002-09-18 07:12:09 51°16.874 2°57.895 65 13.1 61.5 9.4
2002-09-18 07:12:14 51°16.882 2°57.921 64.7 13.1 61.4 9.3
2002-09-18 07:12:19 51°16.891 2°57.946 64.5 13.2 61.4 9.2
2002-09-18 07:12:23 51°16.899 2°57.966 64.7 13.2 61.2 9.2
2002-09-18 07:12:29 51°16.909 2°57.996 63.7 13.2 60.7 9.4
2002-09-18 07:12:34 51°16.918 2°58.022 63.8 13.1 60.7 9.4
2002-09-18 07:12:38 51°16.926 2°58.041 63 13.1 59.6 9.3
2002-09-18 07:12:42 51°16.933 2°58.061 63 13.2 59.9 9.1
2002-09-18 07:12:49 51°16.947 2°58.096 62.3 13.2 59 9.3
2002-09-18 07:12:53 51°16.954 2°58.116 62.5 13.2 59.1 9
2002-09-18 07:12:59 51°16.966 2°58.146 62 13.2 58.4 9.4
2002-09-18 07:13:04 51°16.975 2°58.171 63.2 13.1 59.5 9.4
2002-09-18 07:13:08 51°16.982 2°58.191 63.3 13.1 59.3 9.3
2002-09-18 07:13:13 51°16.991 2°58.217 63.7 13.1 59.9 9.1
2002-09-18 07:13:18 51°17 2°58.242 63.5 13.2 59.8 9.3
2002-09-18 07:13:22 51°17.007 2°58.262 63.3 13.2 59.8 9.4
2002-09-18 07:13:29 51°17.02 2°58.297 63.3 13.1 59.6 9.2
2002-09-18 07:13:34 51°17.029 2°58.322 63.3 13.1 60 9.4
2002-09-18 07:13:39 51°17.038 2°58.347 63.7 13 59.6 9.4
2002-09-18 07:13:44 51°17.047 2°58.372 63.5 13 60 9.1
2002-09-18 07:13:48 51°17.054 2°58.392 63.5 13 60.2 9.3
2002-09-18 07:13:54 51°17.065 2°58.422 63.2 13 59.9 9.3
2002-09-18 07:13:59 51°17.075 2°58.446 62.5 13.1 59.5 9.3
2002-09-18 07:14:02 51°17.081 2°58.461 62.2 13.1 58.6 9.3
2002-09-18 07:14:09 51°17.094 2°58.495 62.2 13 58.7 9.2
2002-09-18 07:14:13 51°17.101 2°58.515 61.7 12.9 58.1 9.3
2002-09-18 07:14:18 51°17.11 2°58.539 62.5 12.9 58.3 9.3
2002-09-18 07:14:24 51°17.122 2°58.569 61.8 13 58.2 9.2
2002-09-18 07:14:29 51°17.132 2°58.593 61.5 13 58.2 9.2
2002-09-18 07:14:33 51°17.139 2°58.613 61.7 13 58.2 9.2
2002-09-18 07:14:38 51°17.148 2°58.637 62 12.9 58.3 9.1
2002-09-18 07:14:42 51°17.156 2°58.656 61.8 12.9 58.5 9
2002-09-18 07:14:49 51°17.169 2°58.691 61.2 13 58.1 9.1
2002-09-18 07:14:53 51°17.177 2°58.71 62.2 12.9 58.4 9.1
2002-09-18 07:14:59 51°17.188 2°58.739 62.5 12.9 58.2 9
2002-09-18 07:15:04 51°17.197 2°58.764 62.7 12.9 58.8 9.1
2002-09-18 07:15:09 51°17.206 2°58.788 62.5 12.9 58.7 9.2
2002-09-18 07:15:14 51°17.215 2°58.813 62.8 12.9 59.3 9.1
2002-09-18 07:15:17 51°17.221 2°58.828 63.3 12.9 59.5 9
2002-09-18 07:15:21 51°17.228 2°58.848 62.8 13 59.5 8.9
2002-09-18 07:15:29 51°17.243 2°58.887 63.3 13 59.6 9
2002-09-18 07:15:33 51°17.25 2°58.907 63 12.9 59.6 8.9
2002-09-18 07:15:37 51°17.258 2°58.926 63.2 12.9 59.6 8.9
2002-09-18 07:15:42 51°17.266 2°58.951 62.3 12.9 59 8.9
2002-09-18 07:15:49 51°17.279 2°58.986 62.8 12.9 59.2 8.9
2002-09-18 07:15:54 51°17.289 2°59.01 61.3 13 58.7 8.9
2002-09-18 07:15:59 51°17.298 2°59.035 62.7 13 59.2 8.9
2002-09-18 07:16:04 51°17.308 2°59.059 61.7 13.1 58.8 8.9
2002-09-18 07:16:09 51°17.317 2°59.084 62 13.1 59 8.8
2002-09-18 07:16:13 51°17.325 2°59.103 61.3 13.1 58.4 8.9
2002-09-18 07:16:18 51°17.334 2°59.128 62 13 58.6 8.9
2002-09-18 07:16:22 51°17.342 2°59.148 61.3 13 58 9
2002-09-18 07:16:29 51°17.355 2°59.182 62.3 12.9 58.4 9
2002-09-18 07:16:32 51°17.361 2°59.197 62.3 13 58.7 8.9
2002-09-18 07:16:37 51°17.37 2°59.221 62.7 13 59.3 8.9
2002-09-18 07:16:43 51°17.381 2°59.251 63.5 13 60.1 8.9
2002-09-18 07:16:49 51°17.391 2°59.282 64 13.1 60 8.9
2002-09-18 07:16:53 51°17.398 2°59.302 63.8 13 60.3 8.7
2002-09-18 07:16:59 51°17.409 2°59.332 63.7 13 60.5 8.8
2002-09-18 07:17:03 51°17.416 2°59.352 64.2 13 60.6 8.8
2002-09-18 07:17:09 51°17.426 2°59.382 64.7 13 60.9 8.9
2002-09-18 07:17:13 51°17.434 2°59.402 64.3 13 60.9 8.9
2002-09-18 07:17:19 51°17.444 2°59.433 64.3 13 61 8.8
2002-09-18 07:17:24 51°17.453 2°59.458 64.2 13.1 60.5 8.9
2002-09-18 07:17:29 51°17.461 2°59.484 64.7 13.1 61.1 8.9
2002-09-18 07:17:33 51°17.469 2°59.504 63.7 13.1 60.7 8.9
2002-09-18 07:17:39 51°17.48 2°59.534 62.5 13.1 59.9 9
2002-09-18 07:17:42 51°17.485 2°59.549 62.5 13.1 59.3 8.9
2002-09-18 07:17:48 51°17.496 2°59.579 61.7 13.2 59 9
2002-09-18 07:17:53 51°17.507 2°59.603 61.2 13.1 57.8 8.9
2002-09-18 07:17:59 51°17.518 2°59.631 60.8 13 57.5 9
2002-09-18 07:18:03 51°17.526 2°59.651 61.2 12.9 57.4 9
2002-09-18 07:18:09 51°17.537 2°59.68 61.2 13 57.4 8.8
2002-09-18 07:18:12 51°17.543 2°59.695 60.5 13 57.2 8.9
2002-09-18 07:18:19 51°17.557 2°59.729 61.5 13 57.8 8.7
2002-09-18 07:18:23 51°17.565 2°59.748 61 13 57.2 8.8
2002-09-18 07:18:29 51°17.576 2°59.777 61.5 13 57.6 8.9
2002-09-18 07:18:33 51°17.584 2°59.797 61.3 13 57.8 8.8
2002-09-18 07:18:37 51°17.591 2°59.816 61.2 13 57.7 8.9
2002-09-18 07:18:42 51°17.601 2°59.841 61.2 13 57.9 8.9
2002-09-18 07:18:49 51°17.615 2°59.874 60.8 13 57.3 8.9
2002-09-18 07:18:53 51°17.622 2°59.894 61.5 12.9 57.7 8.8
2002-09-18 07:18:58 51°17.632 2°59.918 61.2 13 57.7 8.8
2002-09-18 07:19:02 51°17.639 2°59.938 61 12.9 58.2 8.7
2002-09-18 07:19:09 51°17.653 2°59.971 61.8 13 58.1 8.8
2002-09-18 07:19:13 51°17.661 2°59.991 61.8 13 58 8.7
2002-09-18 07:19:18 51°17.67 3°0.015 61.3 13 58.3 8.7
2002-09-18 07:19:22 51°17.678 3°0.035 60.8 13 57.5 8.8
2002-09-18 07:19:29 51°17.691 3°0.068 60.5 12.9 57.2 8.8
2002-09-18 07:19:34 51°17.701 3°0.092 60 12.9 56.9 8.7
2002-09-18 07:19:39 51°17.71 3°0.116 60.5 12.9 56.6 8.5
2002-09-18 07:19:41 51°17.714 3°0.126 59.8 12.9 56.6 8.5
2002-09-18 07:19:49 51°17.73 3°0.164 60.3 12.9 56.8 8.6
2002-09-18 07:19:53 51°17.737 3°0.183 60.3 12.8 57.3 8.5
2002-09-18 07:19:59 51°17.749 3°0.212 60 12.9 56.8 8.5
2002-09-18 07:20:02 51°17.755 3°0.226 60 12.9 56.6 8.5
2002-09-18 07:20:09 51°17.769 3°0.26 60.3 12.9 56.4 8.5
2002-09-18 07:20:14 51°17.779 3°0.284 60.7 12.9 56.8 8.4
2002-09-18 07:20:18 51°17.786 3°0.303 60.7 12.9 57.1 8.3
2002-09-18 07:20:22 51°17.794 3°0.322 61.3 12.8 58 8.4
2002-09-18 07:20:29 51°17.807 3°0.356 61.5 12.8 58.1 8.5
2002-09-18 07:20:33 51°17.814 3°0.375 62.5 12.8 58.8 8.5
2002-09-18 07:20:39 51°17.825 3°0.404 62.8 12.8 59.3 8.5
2002-09-18 07:20:44 51°17.834 3°0.429 63.2 12.9 59.4 8.5
2002-09-18 07:20:49 51°17.843 3°0.454 62.5 12.9 59.5 8.5
2002-09-18 07:20:54 51°17.852 3°0.478 62.2 12.9 59.3 8.5
2002-09-18 07:20:58 51°17.86 3°0.498 61.7 12.9 59 8.4
2002-09-18 07:21:01 51°17.865 3°0.512 61.2 12.9 58.3 8.4
2002-09-18 07:21:09 51°17.88 3°0.551 61.7 12.9 58.2 8.4
2002-09-18 07:21:13 51°17.888 3°0.57 61 12.9 57.7 8.5
2002-09-18 07:21:18 51°17.898 3°0.594 60.7 12.9 57.5 8.5
2002-09-18 07:21:21 51°17.903 3°0.609 60.5 12.9 57.7 8.5
2002-09-18 07:21:29 51°17.919 3°0.647 60 12.9 56.8 8.5
2002-09-18 07:21:34 51°17.928 3°0.671 60.3 12.8 57 8.4
2002-09-18 07:21:39 51°17.938 3°0.694 59.8 12.9 56.5 8.3
2002-09-18 07:21:44 51°17.948 3°0.718 60.8 12.8 57 8.2
2002-09-18 07:21:48 51°17.955 3°0.737 60.7 12.8 57.1 8.2
2002-09-18 07:21:54 51°17.967 3°0.766 60.7 12.8 57.3 8.3
2002-09-18 07:21:59 51°17.976 3°0.79 61.5 12.8 57.9 8.2
2002-09-18 07:22:03 51°17.983 3°0.81 61.5 12.8 58.7 8.1
2002-09-18 07:22:09 51°17.995 3°0.838 61.2 12.7 58.3 8.1
2002-09-18 07:22:13 51°18.002 3°0.858 62 12.7 58.8 8.1
2002-09-18 07:22:18 51°18.011 3°0.882 62.5 12.8 59 8.1
2002-09-18 07:22:22 51°18.018 3°0.901 62.2 12.8 59.2 8.1
2002-09-18 07:22:29 51°18.031 3°0.935 61.8 12.8 59 8.2
2002-09-18 07:22:33 51°18.038 3°0.954 61.7 12.7 58.6 8.3
2002-09-18 07:22:39 51°18.049 3°0.983 61.7 12.7 58.4 8.2
2002-09-18 07:22:44 51°18.059 3°1.006 60.8 12.7 57.4 8.2
2002-09-18 07:22:49 51°18.068 3°1.03 61.2 12.7 58 8
2002-09-18 07:22:53 51°18.076 3°1.049 59.8 12.7 56.7 8.2
2002-09-18 07:22:58 51°18.086 3°1.073 60.5 12.7 57.1 8.2
2002-09-18 07:23:03 51°18.096 3°1.096 60.2 12.7 56.5 8.1
2002-09-18 07:23:09 51°18.107 3°1.125 60.5 12.8 57.1 8
2002-09-18 07:23:13 51°18.115 3°1.143 59.8 12.8 56.1 8.1
2002-09-18 07:23:19 51°18.127 3°1.172 59.7 12.8 56.5 8.2
2002-09-18 07:23:24 51°18.136 3°1.195 59.7 12.7 56.5 8.1
2002-09-18 07:23:29 51°18.146 3°1.219 60.5 12.7 57.1 8.2
2002-09-18 07:23:32 51°18.152 3°1.233 61.3 12.8 58 8.2
2002-09-18 07:23:39 51°18.165 3°1.267 62 12.8 58 8.1
2002-09-18 07:23:44 51°18.173 3°1.292 63 12.8 59.7 8.2
2002-09-18 07:23:49 51°18.182 3°1.317 63.2 12.8 59.6 8.2
2002-09-18 07:23:53 51°18.189 3°1.337 63 12.8 60.1 8.2
2002-09-18 07:23:56 51°18.194 3°1.351 62.7 12.8 59.8 8.3
2002-09-18 07:24:02 51°18.205 3°1.38 62.7 12.7 59.5 8.2
2002-09-18 07:24:09 51°18.218 3°1.414 62.8 12.8 59.4 8.2
2002-09-18 07:24:13 51°18.225 3°1.434 62 12.8 59.1 8.1
2002-09-18 07:24:18 51°18.235 3°1.457 60.5 12.8 58.2 8
2002-09-18 07:24:22 51°18.242 3°1.476 60.7 12.8 57.5 8.1
2002-09-18 07:24:29 51°18.255 3°1.509 60.5 12.7 57.3 8.1
2002-09-18 07:24:33 51°18.264 3°1.528 59.5 12.7 56.1 7.9
2002-09-18 07:24:37 51°18.271 3°1.547 59.7 12.7 56.2 8.1
2002-09-18 07:24:41 51°18.279 3°1.566 59.7 12.7 55.9 8
2002-09-18 07:24:48 51°18.293 3°1.598 60.3 12.7 55.9 8.1
2002-09-18 07:24:53 51°18.303 3°1.622 60.8 12.7 56.8 8
2002-09-18 07:24:59 51°18.314 3°1.651 61.2 12.7 57.2 8.2
2002-09-18 07:25:04 51°18.323 3°1.675 61.8 12.7 58.3 7.8
2002-09-18 07:25:09 51°18.332 3°1.699 61.3 12.7 58.5 8.4
2002-09-18 07:25:14 51°18.342 3°1.723 61.7 12.7 58.5 8.2
2002-09-18 07:25:18 51°18.349 3°1.742 61.7 12.7 58.5 8.1
2002-09-18 07:25:22 51°18.356 3°1.761 61.7 12.8 58.4 8
2002-09-18 07:25:28 51°18.367 3°1.79 61.5 12.7 58.3 8.2
2002-09-18 07:25:33 51°18.377 3°1.814 61.7 12.7 57.9 8.1
2002-09-18 07:25:39 51°18.388 3°1.843 61.3 12.8 58.1 8.2
2002-09-18 07:25:41 51°18.392 3°1.852 61.3 12.8 58 7.9
2002-09-18 07:25:49 51°18.407 3°1.891 61.2 12.8 57.8 7.9
2002-09-18 07:25:54 51°18.416 3°1.914 60.5 12.8 57.5 8.1
2002-09-18 07:25:57 51°18.422 3°1.928 60.5 12.8 56.9 8.1
2002-09-18 07:26:04 51°18.436 3°1.961 60.2 12.8 56.5 7.7
2002-09-18 07:26:09 51°18.445 3°1.985 60.5 12.8 56.9 7.7
2002-09-18 07:26:13 51°18.453 3°2.004 60.3 12.8 56.4 8
2002-09-18 07:26:18 51°18.463 3°2.028 60.2 12.8 56.8 7.9
2002-09-18 07:26:24 51°18.475 3°2.056 60 12.7 56.5 7.9
2002-09-18 07:26:29 51°18.484 3°2.079 60.2 12.7 57 7.9
2002-09-18 07:26:33 51°18.492 3°2.098 60.2 12.7 56.9 8.1
2002-09-18 07:26:38 51°18.501 3°2.122 60.2 12.8 57 8.1
2002-09-18 07:26:42 51°18.509 3°2.141 60.7 12.8 57.5 8
2002-09-18 07:26:49 51°18.522 3°2.174 60.7 12.7 57.6 8
2002-09-18 07:26:53 51°18.529 3°2.194 62.3 12.7 58.4 7.5
2002-09-18 07:26:58 51°18.538 3°2.218 61.8 12.7 58.6 7.7
2002-09-18 07:27:02 51°18.546 3°2.237 62 12.6 58.8 7.9
2002-09-18 07:27:09 51°18.558 3°2.27 61.5 12.6 59.1 7.4
2002-09-18 07:27:13 51°18.566 3°2.289 62.2 12.7 58.5 7.8
2002-09-18 07:27:19 51°18.577 3°2.318 61.2 12.7 58.1 7.6
2002-09-18 07:27:22 51°18.582 3°2.333 61.8 12.6 58.8 7.6
2002-09-18 07:27:29 51°18.596 3°2.365 61.2 12.6 57.8 7.9
2002-09-18 07:27:34 51°18.605 3°2.389 60.2 12.7 57.7 8
2002-09-18 07:27:38 51°18.613 3°2.408 59.3 12.7 56.2 7.5
2002-09-18 07:27:43 51°18.623 3°2.431 59.2 12.6 56.1 7.8
2002-09-18 07:27:49 51°18.635 3°2.458 59.2 12.6 55.8 7.8
2002-09-18 07:27:53 51°18.642 3°2.477 59.8 12.7 56.1 7.7
2002-09-18 07:27:58 51°18.652 3°2.501 59.8 12.7 56.3 7.6
2002-09-18 07:28:04 51°18.664 3°2.529 59.5 12.7 56 7.8
2002-09-18 07:28:09 51°18.674 3°2.552 59.7 12.7 55.7 7.8
2002-09-18 07:28:13 51°18.682 3°2.57 58.7 12.7 55.1 7.8
2002-09-18 07:28:18 51°18.692 3°2.593 57.8 12.7 54.6 7.8
2002-09-18 07:28:22 51°18.7 3°2.611 58 12.6 54.2 7.9
2002-09-18 07:28:29 51°18.714 3°2.643 57.7 12.6 54.3 7.8
2002-09-18 07:28:32 51°18.721 3°2.656 58.5 12.7 54.2 7.8
2002-09-18 07:28:39 51°18.735 3°2.689 58.7 12.7 55.1 7.6
2002-09-18 07:28:42 51°18.741 3°2.703 60.3 12.7 56.3 7.7
2002-09-18 07:28:49 51°18.753 3°2.736 61.3 12.7 57.5 7.8
2002-09-18 07:28:53 51°18.761 3°2.756 62.5 12.7 58.7 7.9
2002-09-18 07:28:59 51°18.771 3°2.786 64.2 12.7 61 7.7
2002-09-18 07:29:04 51°18.779 3°2.81 64.5 12.8 60.8 7.7
2002-09-18 07:29:09 51°18.788 3°2.835 64.5 12.8 61.7 7.8
2002-09-18 07:29:14 51°18.797 3°2.859 64 12.7 60.6 7.8
2002-09-18 07:29:19 51°18.805 3°2.884 64.5 12.7 60.8 7.9
2002-09-18 07:29:22 51°18.811 3°2.898 63.3 12.7 59.8 7.5
2002-09-18 07:29:29 51°18.824 3°2.932 61.5 12.7 58.5 7.8
2002-09-18 07:29:33 51°18.832 3°2.95 59.7 12.8 56.8 7.8
2002-09-18 07:29:38 51°18.842 3°2.974 59.2 12.8 56 7.8
2002-09-18 07:29:43 51°18.852 3°2.997 58.8 12.8 55.3 7.8
2002-09-18 07:29:49 51°18.864 3°3.024 58.5 12.8 55 7.9
2002-09-18 07:29:53 51°18.872 3°3.043 58.8 12.7 54.7 7.9
2002-09-18 07:29:58 51°18.882 3°3.066 59 12.7 54.8 8
2002-09-18 07:30:03 51°18.892 3°3.09 60.2 12.7 55.9 8
2002-09-18 07:30:09 51°18.903 3°3.118 61 12.7 56.6 7.9
2002-09-18 07:30:13 51°18.91 3°3.138 62.5 12.8 58.8 8
2002-09-18 07:30:18 51°18.919 3°3.162 62.5 12.8 59.3 8
2002-09-18 07:30:24 51°18.929 3°3.193 64.2 12.9 60.8 8
2002-09-18 07:30:29 51°18.938 3°3.217 64.5 12.8 60.7 8
2002-09-18 07:30:33 51°18.945 3°3.237 64 12.8 61.2 8
2002-09-18 07:30:39 51°18.956 3°3.266 64.2 12.8 60.3 8
2002-09-18 07:30:42 51°18.961 3°3.281 62.7 12.7 59.3 7.8
2002-09-18 07:30:49 51°18.974 3°3.315 62.2 12.8 58.9 8
2002-09-18 07:30:54 51°18.984 3°3.338 60.2 12.8 57.6 8
2002-09-18 07:30:59 51°18.993 3°3.362 59.8 12.8 56.7 8
2002-09-18 07:31:03 51°19.002 3°3.38 59 12.8 55.1 7.9
2002-09-18 07:31:09 51°19.014 3°3.408 59.2 12.8 55.1 7.9
2002-09-18 07:31:14 51°19.024 3°3.431 59 12.7 55.6 8
2002-09-18 07:31:19 51°19.034 3°3.455 59.2 12.7 55.5 8
2002-09-18 07:31:22 51°19.039 3°3.469 59.7 12.8 56.2 8
2002-09-18 07:31:29 51°19.053 3°3.502 60.3 12.8 56.3 8
2002-09-18 07:31:34 51°19.062 3°3.526 61.2 12.8 57.7 8
2002-09-18 07:31:39 51°19.072 3°3.55 61.3 12.8 57.6 7.9
2002-09-18 07:31:44 51°19.081 3°3.575 62.7 12.8 59 7.9
2002-09-18 07:31:49 51°19.09 3°3.599 62.7 12.8 58.6 8
2002-09-18 07:31:54 51°19.099 3°3.623 63 12.8 59.2 8
2002-09-18 07:31:58 51°19.106 3°3.642 62.3 12.7 59 8.1
2002-09-18 07:32:03 51°19.116 3°3.666 61.5 12.8 57.9 7.9
2002-09-18 07:32:09 51°19.127 3°3.695 61.3 12.8 57.5 8
2002-09-18 07:32:13 51°19.135 3°3.714 60.7 12.8 56.3 8
2002-09-18 07:32:18 51°19.145 3°3.737 60.2 12.7 56.6 8
2002-09-18 07:32:22 51°19.153 3°3.756 59.7 12.7 55.7 8
2002-09-18 07:32:29 51°19.167 3°3.788 59.2 12.7 56 8
2002-09-18 07:32:33 51°19.175 3°3.807 59.5 12.7 55.3 8
2002-09-18 07:32:38 51°19.185 3°3.83 59.2 12.8 55.2 8
2002-09-18 07:32:42 51°19.193 3°3.849 59.7 12.8 55.6 8
2002-09-18 07:32:49 51°19.207 3°3.882 59.5 12.8 55.7 8
2002-09-18 07:32:53 51°19.214 3°3.901 60.7 12.8 56.8 8
2002-09-18 07:32:58 51°19.224 3°3.925 60.7 12.7 56.7 7.9
2002-09-18 07:33:02 51°19.231 3°3.944 60.7 12.7 57.3 7.9
2002-09-18 07:33:09 51°19.245 3°3.977 61.7 12.7 57.2 7.9
2002-09-18 07:33:13 51°19.252 3°3.996 61.3 12.8 58 8.1
2002-09-18 07:33:18 51°19.262 3°4.02 62 12.8 57.9 8.2
2002-09-18 07:33:22 51°19.269 3°4.039 61.2 12.8 57.3 8.1
2002-09-18 07:33:29 51°19.283 3°4.073 61.3 12.9 57.8 8.1
2002-09-18 07:33:33 51°19.29 3°4.093 61.2 12.9 57.8 8.2
2002-09-18 07:33:38 51°19.3 3°4.116 61.7 12.9 57.5 8.2
2002-09-18 07:33:43 51°19.309 3°4.141 62 12.9 58 8.2
2002-09-18 07:33:49 51°19.32 3°4.17 62 12.8 57.9 8
2002-09-18 07:33:53 51°19.328 3°4.189 61.3 12.8 57.9 8
2002-09-18 07:33:58 51°19.338 3°4.213 62 12.8 57.8 8
2002-09-18 07:34:04 51°19.349 3°4.241 62.2 12.8 57.5 8
2002-09-18 07:34:09 51°19.358 3°4.265 62.3 12.7 58.6 8
2002-09-18 07:34:14 51°19.367 3°4.29 62.5 12.7 58.4 7.9
2002-09-18 07:34:19 51°19.377 3°4.314 62 12.8 58.8 8
2002-09-18 07:34:24 51°19.386 3°4.338 61.8 12.8 58.1 8
2002-09-18 07:34:29 51°19.396 3°4.361 61 12.8 57.5 8
2002-09-18 07:34:33 51°19.403 3°4.38 60.8 12.8 57 8
2002-09-18 07:34:38 51°19.413 3°4.404 59.8 12.7 56.1 7.8
2002-09-18 07:34:42 51°19.421 3°4.422 59.7 12.7 56.1 7.9
2002-09-18 07:34:49 51°19.436 3°4.455 59.2 12.8 55.3 8
2002-09-18 07:34:53 51°19.443 3°4.474 59 12.8 54.8 8
2002-09-18 07:34:58 51°19.454 3°4.496 58.5 12.8 54 8.1
2002-09-18 07:35:02 51°19.462 3°4.515 59.2 12.8 54.9 8
2002-09-18 07:35:09 51°19.476 3°4.548 59.8 12.8 55.3 8
2002-09-18 07:35:13 51°19.483 3°4.568 60.7 12.8 56.8 8
2002-09-18 07:35:18 51°19.493 3°4.591 61 12.8 57 8
2002-09-18 07:35:22 51°19.5 3°4.611 61.7 12.8 57.6 7.9
2002-09-18 07:35:29 51°19.514 3°4.644 61.8 12.8 57.5 8
2002-09-18 07:35:32 51°19.52 3°4.658 62.3 12.8 58.3 8
2002-09-18 07:35:37 51°19.529 3°4.683 62.8 12.8 58.3 8
2002-09-18 07:35:42 51°19.538 3°4.707 63.3 12.8 59.5 8
2002-09-18 07:35:49 51°19.551 3°4.741 63.3 12.9 59.1 8
2002-09-18 07:35:53 51°19.558 3°4.761 63.2 12.9 59.8 8.1
2002-09-18 07:35:58 51°19.567 3°4.785 62.3 12.9 58.5 8.1
2002-09-18 07:36:02 51°19.575 3°4.805 61.2 12.8 57.8 8
2002-09-18 07:36:09 51°19.589 3°4.838 60.8 12.9 56.8 8
2002-09-18 07:36:13 51°19.597 3°4.856 58.7 12.9 55.5 8.1
2002-09-18 07:36:18 51°19.608 3°4.879 57.2 12.9 53.6 7.9
2002-09-18 07:36:24 51°19.621 3°4.906 55.3 12.9 51.2 8
2002-09-18 07:36:29 51°19.632 3°4.928 54.3 12.9 51 8
2002-09-18 07:36:33 51°19.642 3°4.945 53.2 12.8 49.6 8
2002-09-18 07:36:39 51°19.655 3°4.971 54.3 12.8 49.6 7.9
2002-09-18 07:36:42 51°19.662 3°4.984 53.7 12.9 49.5 7.9
2002-09-18 07:36:49 51°19.678 3°5.015 54.7 12.9 50.1 8
2002-09-18 07:36:53 51°19.688 3°5.032 54.7 12.9 50.2 8.1
2002-09-18 07:36:59 51°19.701 3°5.059 55.8 12.8 51 8.1
2002-09-18 07:37:03 51°19.71 3°5.077 55.5 12.8 50.9 8.1
2002-09-18 07:37:09 51°19.723 3°5.104 56.7 12.9 51.9 8
2002-09-18 07:37:13 51°19.731 3°5.122 56.8 12.9 52.4 8
2002-09-18 07:37:18 51°19.742 3°5.145 57.7 12.9 53.2 8.1
2002-09-18 07:37:22 51°19.751 3°5.163 57.3 12.9 53 8
2002-09-18 07:37:29 51°19.766 3°5.195 56.3 12.9 52.6 8
2002-09-18 07:37:33 51°19.775 3°5.213 54.7 12.9 50.7 8.1
2002-09-18 07:37:39 51°19.789 3°5.238 53 12.9 48.9 8.1
2002-09-18 07:37:44 51°19.801 3°5.259 52.3 12.9 47.9 8.1
2002-09-18 07:37:49 51°19.814 3°5.28 51.3 12.9 47 8
2002-09-18 07:37:53 51°19.824 3°5.296 50.5 12.9 46.4 8
2002-09-18 07:37:58 51°19.836 3°5.317 50.5 12.9 46 8
2002-09-18 07:38:04 51°19.851 3°5.341 50.5 12.9 45.8 8
2002-09-18 07:38:09 51°19.864 3°5.361 50.3 12.9 45.6 8
2002-09-18 07:38:14 51°19.876 3°5.383 51.5 12.9 46.5 8
2002-09-18 07:38:18 51°19.886 3°5.4 52.2 12.9 47 8
2002-09-18 07:38:22 51°19.895 3°5.417 52.8 12.9 48.3 7.9
2002-09-18 07:38:29 51°19.911 3°5.447 53.2 12.9 48.6 7.9
2002-09-18 07:38:34 51°19.923 3°5.469 53.7 12.9 49.3 7.9
2002-09-18 07:38:39 51°19.934 3°5.491 54.5 12.9 49.7 7.9
2002-09-18 07:38:44 51°19.946 3°5.513 55 12.9 50.4 8
2002-09-18 07:38:49 51°19.957 3°5.534 54.5 12.9 50.5 8
2002-09-18 07:38:53 51°19.966 3°5.552 55.2 12.9 50.7 8
2002-09-18 07:38:59 51°19.98 3°5.579 54.8 12.9 50.3 8
2002-09-18 07:39:03 51°19.989 3°5.596 54.2 12.9 50.2 7.9
2002-09-18 07:39:08 51°20.001 3°5.617 53.2 12.9 49.3 7.9
2002-09-18 07:39:13 51°20.013 3°5.639 52.7 12.9 48.4 7.9
2002-09-18 07:39:18 51°20.025 3°5.66 51.8 12.9 48 7.8
2002-09-18 07:39:23 51°20.037 3°5.68 51.2 12.8 47 7.9
2002-09-18 07:39:29 51°20.051 3°5.705 51.2 12.8 46.8 7.9
2002-09-18 07:39:33 51°20.061 3°5.722 51.3 12.9 46.9 7.9
2002-09-18 07:39:37 51°20.071 3°5.739 51.2 12.9 46.9 7.9
2002-09-18 07:39:43 51°20.085 3°5.764 51 12.9 47 7.9
2002-09-18 07:39:49 51°20.1 3°5.789 51.3 12.8 46.8 7.8
2002-09-18 07:39:53 51°20.11 3°5.805 51.3 12.8 47.2 7.8
2002-09-18 07:39:58 51°20.122 3°5.826 51.8 12.8 47.4 7.9
2002-09-18 07:40:03 51°20.134 3°5.847 51.7 12.8 47.3 7.8
2002-09-18 07:40:09 51°20.148 3°5.873 52.7 12.8 47.6 7.8
2002-09-18 07:40:13 51°20.157 3°5.89 52.8 12.9 48 7.8
2002-09-18 07:40:18 51°20.169 3°5.911 52.8 12.9 48.3 7.9
2002-09-18 07:40:24 51°20.184 3°5.936 52.5 12.8 48.2 7.8
2002-09-18 07:40:29 51°20.196 3°5.957 51.5 12.9 47.9 7.8
2002-09-18 07:40:34 51°20.208 3°5.978 51.2 12.9 46.5 7.8
2002-09-18 07:40:38 51°20.218 3°5.994 49.8 12.9 45.5 7.8
2002-09-18 07:40:43 51°20.231 3°6.014 48.7 12.8 44.8 7.8
2002-09-18 07:40:49 51°20.247 3°6.037 46.8 12.8 43.2 7.7
2002-09-18 07:40:53 51°20.257 3°6.051 45.2 12.8 40.9 7.7
2002-09-18 07:40:59 51°20.274 3°6.072 43.2 12.8 39.3 7.8
2002-09-18 07:41:02 51°20.283 3°6.083 43 12.8 38.2 7.7
2002-09-18 07:41:09 51°20.303 3°6.107 41.5 12.8 37.1 7.8
2002-09-18 07:41:13 51°20.314 3°6.12 41.8 12.8 36.8 7.7
2002-09-18 07:41:19 51°20.331 3°6.141 41.8 12.8 36.8 7.7
2002-09-18 07:41:22 51°20.339 3°6.151 42.5 12.8 37.5 7.8
2002-09-18 07:41:29 51°20.359 3°6.176 42.3 12.8 38 7.8
2002-09-18 07:41:33 51°20.37 3°6.191 44 12.8 39.2 7.8
2002-09-18 07:41:38 51°20.383 3°6.209 44.3 12.8 39.9 7.7
2002-09-18 07:41:42 51°20.394 3°6.224 45.3 12.8 40.9 7.7
2002-09-18 07:41:49 51°20.412 3°6.25 45.7 12.8 41.1 7.7
2002-09-18 07:41:53 51°20.423 3°6.265 45.7 12.8 41.2 7.7
2002-09-18 07:41:58 51°20.437 3°6.283 45 12.9 40.4 7.7
2002-09-18 07:42:02 51°20.448 3°6.298 44.5 12.8 40.5 7.7
2002-09-18 07:42:09 51°20.467 3°6.323 43.8 12.7 40 7.6
2002-09-18 07:42:13 51°20.478 3°6.337 43.7 12.7 39 7.6
2002-09-18 07:42:19 51°20.494 3°6.358 42.8 12.8 38.3 7.6
2002-09-18 07:42:21 51°20.5 3°6.365 42 12.8 37.6 7.6
2002-09-18 07:42:29 51°20.523 3°6.392 41.3 12.7 36.8 7.6
2002-09-18 07:42:33 51°20.534 3°6.405 41.2 12.8 36.5 7.7
2002-09-18 07:42:39 51°20.551 3°6.426 41.3 12.8 36.8 7.7
2002-09-18 07:42:43 51°20.562 3°6.439 42.3 12.7 37.3 7.6
2002-09-18 07:42:49 51°20.579 3°6.46 42.3 12.7 37.8 7.6
2002-09-18 07:42:53 51°20.59 3°6.474 42.8 12.7 38.2 7.7
2002-09-18 07:42:57 51°20.601 3°6.488 42.5 12.7 38.2 7.6
2002-09-18 07:43:04 51°20.62 3°6.513 42.8 12.7 38.3 7.6
2002-09-18 07:43:08 51°20.631 3°6.527 43.5 12.7 38.6 7.7
2002-09-18 07:43:13 51°20.645 3°6.545 43.8 12.8 38.9 7.7
2002-09-18 07:43:19 51°20.661 3°6.567 44.2 12.8 39.5 7.7
2002-09-18 07:43:22 51°20.67 3°6.577 44.3 12.8 39.6 7.6
2002-09-18 07:43:29 51°20.688 3°6.603 44.8 12.7 39.6 7.6
2002-09-18 07:43:33 51°20.699 3°6.618 46.2 12.8 41.2 7.6
2002-09-18 07:43:38 51°20.712 3°6.637 47 12.8 42.4 7.6
2002-09-18 07:43:42 51°20.722 3°6.652 47.3 12.8 42.9 7.6
2002-09-18 07:43:49 51°20.74 3°6.68 47.8 12.8 43.3 7.6
2002-09-18 07:43:53 51°20.751 3°6.695 47 12.8 42.7 7.6
2002-09-18 07:43:59 51°20.767 3°6.717 45.7 12.7 41.5 7.6
2002-09-18 07:44:03 51°20.778 3°6.731 44 12.7 39.9 7.6
2002-09-18 07:44:09 51°20.795 3°6.751 42.2 12.7 38.4 7.6
2002-09-18 07:44:13 51°20.806 3°6.765 41.5 12.8 37 7.6
2002-09-18 07:44:18 51°20.82 3°6.782 40.7 12.8 36.3 7.7
2002-09-18 07:44:24 51°20.837 3°6.802 42 12.7 36.9 7.7
2002-09-18 07:44:29 51°20.851 3°6.819 41.8 12.7 36.7 7.6
2002-09-18 07:44:34 51°20.865 3°6.836 41.8 12.8 37.2 7.7
2002-09-18 07:44:38 51°20.877 3°6.85 42.2 12.8 37.2 7.7
2002-09-18 07:44:44 51°20.893 3°6.871 42.2 12.8 37.7 7.8
2002-09-18 07:44:49 51°20.907 3°6.888 43 12.8 37.8 7.8
2002-09-18 07:44:53 51°20.919 3°6.903 43 12.8 38.4 7.8
2002-09-18 07:44:58 51°20.932 3°6.92 43.7 12.8 38.7 7.8
2002-09-18 07:45:04 51°20.949 3°6.942 44.3 12.9 39.2 7.8
2002-09-18 07:45:09 51°20.963 3°6.961 44.8 12.9 40.2 7.9
2002-09-18 07:45:14 51°20.976 3°6.979 45.3 12.9 40.7 7.9
2002-09-18 07:45:18 51°20.987 3°6.995 46.2 12.9 41.6 7.9
2002-09-18 07:45:24 51°21.003 3°7.018 46.8 12.9 42.4 8
2002-09-18 07:45:29 51°21.016 3°7.037 47.3 12.9 42.9 8
2002-09-18 07:45:33 51°21.026 3°7.053 47.7 13 42.8 8
2002-09-18 07:45:39 51°21.042 3°7.076 46.7 13 42.2 8.1
2002-09-18 07:45:42 51°21.051 3°7.087 46 13 41.3 8.1
2002-09-18 07:45:49 51°21.07 3°7.113 44.2 13 40.2 8.1
2002-09-18 07:45:53 51°21.081 3°7.128 43.3 13 39.2 8.1
2002-09-18 07:45:58 51°21.096 3°7.145 42.7 13 38.6 8.2
2002-09-18 07:46:02 51°21.107 3°7.159 42.5 13 38 8.3
2002-09-18 07:46:09 51°21.127 3°7.184 42.3 13.1 37.9 8.4
2002-09-18 07:46:13 51°21.139 3°7.199 42.8 13.1 37.8 8.5
2002-09-18 07:46:18 51°21.153 3°7.216 43 13.1 37.9 8.5
2002-09-18 07:46:24 51°21.17 3°7.238 43.3 13.2 38.3 8.5
2002-09-18 07:46:29 51°21.185 3°7.256 42.3 13.2 38.1 8.6
2002-09-18 07:46:33 51°21.196 3°7.271 43.2 13.2 38.3 8.6
2002-09-18 07:46:38 51°21.211 3°7.289 43 13.2 38.1 8.6
2002-09-18 07:46:43 51°21.225 3°7.307 43.7 13.2 38.5 8.8
2002-09-18 07:46:49 51°21.242 3°7.329 43.5 13.2 38.3 8.8
2002-09-18 07:46:53 51°21.253 3°7.344 43.8 13.2 39 8.8
2002-09-18 07:46:59 51°21.271 3°7.365 43.3 13.3 38.7 8.9
2002-09-18 07:47:02 51°21.279 3°7.377 43.5 13.3 38.4 9
2002-09-18 07:47:09 51°21.3 3°7.402 43.5 13.3 38.3 9.1
2002-09-18 07:47:14 51°21.314 3°7.42 43.7 13.3 38.2 9.2
2002-09-18 07:47:18 51°21.326 3°7.435 43.5 13.3 38.1 9.5
2002-09-18 07:47:22 51°21.338 3°7.449 43.2 13.4 38.1 9.3
2002-09-18 07:47:29 51°21.358 3°7.475 43.7 13.4 38.3 9.4
2002-09-18 07:47:33 51°21.37 3°7.49 44.3 13.5 38.7 9.4
2002-09-18 07:47:38 51°21.384 3°7.51 45.3 13.5 39.9 9.4
2002-09-18 07:47:44 51°21.401 3°7.533 45.7 13.4 40.7 9.7
2002-09-18 07:47:49 51°21.415 3°7.553 46.3 13.4 41.4 9.7
2002-09-18 07:47:53 51°21.426 3°7.569 47.3 13.4 41.8 9.7
2002-09-18 07:47:59 51°21.442 3°7.593 47.3 13.4 42.5 9.8
2002-09-18 07:48:02 51°21.45 3°7.605 48.2 13.4 43.1 9.7
2002-09-18 07:48:09 51°21.47 3°7.634 47.8 13.5 43.4 9.6
2002-09-18 07:48:14 51°21.483 3°7.654 47.7 13.4 43.5 9.8
2002-09-18 07:48:18 51°21.494 3°7.671 48.2 13.4 43.4 9.8
2002-09-18 07:48:22 51°21.505 3°7.686 47.7 13.4 42.7 9.8
2002-09-18 07:48:29 51°21.524 3°7.715 47.3 13.5 42.7 10
2002-09-18 07:48:33 51°21.536 3°7.731 46.5 13.5 42.1 10.2
2002-09-18 07:48:39 51°21.552 3°7.754 46.7 13.5 41.9 10.2
2002-09-18 07:48:44 51°21.566 3°7.774 46.8 13.5 41.6 10.2
2002-09-18 07:48:49 51°21.58 3°7.794 47 13.5 42 10.3
2002-09-18 07:48:53 51°21.591 3°7.81 47.3 13.4 42.3 10.3
2002-09-18 07:48:59 51°21.608 3°7.834 47.2 13.4 42.3 10.4
2002-09-18 07:49:02 51°21.616 3°7.847 47.7 13.5 42.4 10.5
2002-09-18 07:49:09 51°21.635 3°7.875 47.3 13.6 42.5 10.5
2002-09-18 07:49:13 51°21.646 3°7.891 47.2 13.6 42.4 10.6
2002-09-18 07:49:18 51°21.66 3°7.911 46.8 13.5 42.2 10.7
2002-09-18 07:49:21 51°21.669 3°7.923 47 13.5 42.1 10.8
2002-09-18 07:49:29 51°21.691 3°7.955 47.3 13.5 41.7 10.7
2002-09-18 07:49:33 51°21.702 3°7.971 47.5 13.5 41.9 10.7
2002-09-18 07:49:39 51°21.719 3°7.995 47.2 13.5 42 10.9
2002-09-18 07:49:43 51°21.73 3°8.011 47.2 13.5 41.9 10.9
2002-09-18 07:49:49 51°21.747 3°8.035 47.2 13.5 41.8 11
2002-09-18 07:49:53 51°21.758 3°8.051 47.3 13.6 41.6 11
2002-09-18 07:49:57 51°21.769 3°8.067 47.3 13.6 42.1 11.1
2002-09-18 07:50:04 51°21.788 3°8.095 47.2 13.5 42.2 11.1
2002-09-18 07:50:09 51°21.802 3°8.116 47.7 13.5 42.7 11.1
2002-09-18 07:50:13 51°21.813 3°8.132 48.3 13.5 42.8 11.1
2002-09-18 07:50:19 51°21.829 3°8.157 48.7 13.5 43.8 11.2
2002-09-18 07:50:22 51°21.838 3°8.169 49.8 13.5 44.4 11.1
2002-09-18 07:50:29 51°21.856 3°8.199 49.5 13.6 44.6 11.1
2002-09-18 07:50:33 51°21.866 3°8.217 50.5 13.5 45.1 11.2
2002-09-18 07:50:38 51°21.88 3°8.237 50.2 13.5 45.1 11.3
2002-09-18 07:50:44 51°21.895 3°8.263 51 13.5 45.7 11.4
2002-09-18 07:50:49 51°21.909 3°8.285 51.2 13.6 46 11.5
2002-09-18 07:50:53 51°21.919 3°8.302 51.5 13.6 46.4 11.5
2002-09-18 07:50:58 51°21.932 3°8.324 51 13.6 46.5 11.4
2002-09-18 07:51:03 51°21.945 3°8.345 50.8 13.5 46.4 11.5
2002-09-18 07:51:09 51°21.96 3°8.372 51.7 13.5 46.9 11.5
2002-09-18 07:51:13 51°21.971 3°8.389 50.7 13.5 46.5 11.6
2002-09-18 07:51:17 51°21.981 3°8.406 51 13.5 46.1 11.6
2002-09-18 07:51:21 51°21.992 3°8.423 50.2 13.5 45.5 11.8
2002-09-18 07:51:29 51°22.013 3°8.457 50.2 13.5 45.1 11.8
2002-09-18 07:51:33 51°22.023 3°8.474 50.3 13.5 45.2 11.8
2002-09-18 07:51:37 51°22.034 3°8.491 50.5 13.5 45.4 11.9
2002-09-18 07:51:42 51°22.047 3°8.513 50.2 13.5 45.6 11.9
2002-09-18 07:51:49 51°22.065 3°8.543 50.7 13.5 45.9 11.9
2002-09-18 07:51:54 51°22.078 3°8.564 50.7 13.5 46 12
2002-09-18 07:51:59 51°22.091 3°8.586 50.7 13.5 46.3 12.1
2002-09-18 07:52:03 51°22.101 3°8.604 50.8 13.5 46.5 12.2
2002-09-18 07:52:09 51°22.117 3°8.63 50.5 13.6 46.5 12.2
2002-09-18 07:52:13 51°22.127 3°8.647 50.3 13.6 46.2 12.2
2002-09-18 07:52:19 51°22.143 3°8.673 50.8 13.6 46.7 12.2
2002-09-18 07:52:22 51°22.151 3°8.686 50.5 13.6 46 12.3
2002-09-18 07:52:29 51°22.169 3°8.717 50.3 13.6 46 12.4
2002-09-18 07:52:34 51°22.182 3°8.737 49.3 13.6 44.9 12.3
2002-09-18 07:52:38 51°22.193 3°8.755 49 13.6 44.7 12.3
2002-09-18 07:52:44 51°22.209 3°8.78 49.5 13.7 44.4 12.4
2002-09-18 07:52:49 51°22.223 3°8.801 49.5 13.6 44.5 12.5
2002-09-18 07:52:53 51°22.233 3°8.818 49.5 13.6 44.6 12.5
2002-09-18 07:52:59 51°22.25 3°8.844 49.3 13.7 44.6 12.6
2002-09-18 07:53:04 51°22.263 3°8.865 49.7 13.7 44.6 12.6
2002-09-18 07:53:09 51°22.276 3°8.886 49.7 13.7 44.8 12.7
2002-09-18 07:53:12 51°22.285 3°8.899 49.7 13.7 44.7 12.7
2002-09-18 07:53:18 51°22.301 3°8.925 49.8 13.6 44.9 12.8
2002-09-18 07:53:24 51°22.317 3°8.951 50 13.7 45.3 12.8
2002-09-18 07:53:29 51°22.329 3°8.973 50.3 13.7 45.7 12.9
2002-09-18 07:53:34 51°22.343 3°8.995 50.5 13.7 46.2 12.8
2002-09-18 07:53:38 51°22.353 3°9.012 50.5 13.7 46.3 12.8
2002-09-18 07:53:43 51°22.366 3°9.034 50.2 13.7 46.6 12.8
2002-09-18 07:53:49 51°22.382 3°9.061 50.5 13.7 46.5 12.9
2002-09-18 07:53:53 51°22.391 3°9.077 51 13.2 46.9 12.9
2002-09-18 07:53:58 51°22.403 3°9.097 50.5 12.5 47 12.9
2002-09-18 07:54:01 51°22.409 3°9.109 51.2 11.7 47.5 13
2002-09-18 07:54:10 51°22.427 3°9.14 51 11 47.6 13.2
2002-09-18 07:54:15 51°22.437 3°9.156 50.5 10.2 47.4 13.2
2002-09-18 07:54:20 51°22.445 3°9.172 50.7 9.8 47.4 13.1
2002-09-18 07:54:25 51°22.454 3°9.186 50.3 9.3 47 13.2
2002-09-18 07:54:30 51°22.462 3°9.2 50.2 8.7 47.2 13.1
2002-09-18 07:54:32 51°22.465 3°9.205 50.2 8.2 47 13.2
2002-09-18 07:54:39 51°22.475 3°9.223 50.2 7.8 47.6 13.3
2002-09-18 07:54:45 51°22.483 3°9.237 50.5 7.4 47.3 13.3
2002-09-18 07:54:50 51°22.489 3°9.248 50.7 7 47.7 13.4
2002-09-18 07:54:54 51°22.494 3°9.257 50.5 6.8 47.6 13.4
2002-09-18 07:54:59 51°22.5 3°9.267 50.7 6.3 47.4 13.4
2002-09-18 07:55:02 51°22.503 3°9.273 50.2 6.1 47.2 13.4
2002-09-18 07:55:10 51°22.512 3°9.287 49.8 5.7 47.3 13.4
2002-09-18 07:55:13 51°22.515 3°9.293 49.8 5.5 47.1 13.3
2002-09-18 07:55:18 51°22.52 3°9.301 49.2 5.3 47.1 13.4
2002-09-18 07:55:25 51°22.526 3°9.312 48.5 5.1 46.4 13.4
2002-09-18 07:55:29 51°22.53 3°9.318 48.2 4.8 45.5 13.4
2002-09-18 07:55:33 51°22.534 3°9.324 47.3 4.7 44.9 13.5
2002-09-18 07:55:37 51°22.537 3°9.33 46.5 4.5 44.3 13.5
2002-09-18 07:55:45 51°22.544 3°9.34 45.8 4.4 44.2 13.5
2002-09-18 07:55:50 51°22.548 3°9.347 44.8 4.2 43.3 13.6
2002-09-18 07:55:53 51°22.551 3°9.35 44.7 4.1 42.4 13.5
2002-09-18 07:56:00 51°22.557 3°9.359 43.8 4.1 40.9 13.5
2002-09-18 07:56:09 51°22.565 3°9.369 42.2 4.1 39.3 13.5
2002-09-18 07:56:14 51°22.569 3°9.374 41.5 4 39.1 13.5
2002-09-18 07:56:17 51°22.572 3°9.377 40.2 4 37.8 13.5
2002-09-18 07:56:22 51°22.576 3°9.383 39.3 3.9 37.2 13.5
2002-09-18 07:56:29 51°22.582 3°9.39 39 3.9 36 13.5
2002-09-18 07:56:32 51°22.585 3°9.393 38.5 3.9 35.5 13.4
2002-09-18 07:56:38 51°22.59 3°9.398 38 3.8 34.5 13.5
2002-09-18 07:56:44 51°22.596 3°9.404 37.3 3.8 34.6 13.5
2002-09-18 07:56:49 51°22.6 3°9.409 36.8 3.8 33.7 13.6
2002-09-18 07:56:53 51°22.604 3°9.412 37 3.8 33.8 13.5
2002-09-18 07:56:58 51°22.608 3°9.417 36.8 3.8 33.2 13.5
2002-09-18 07:57:04 51°22.613 3°9.423 36.5 3.8 33 13.5
2002-09-18 07:57:09 51°22.618 3°9.427 36.2 3.8 32.8 13.5
2002-09-18 07:57:14 51°22.622 3°9.432 36.2 3.8 33.1 13.5
2002-09-18 07:57:17 51°22.625 3°9.434 36.2 3.7 32.7 13.4
2002-09-18 07:57:24 51°22.631 3°9.44 36.2 3.7 32.9 13.3
2002-09-18 07:57:29 51°22.635 3°9.444 36.3 3.5 32.3 13.3
2002-09-18 07:57:33 51°22.638 3°9.447 36.2 3.4 32.5 13.3
2002-09-18 07:57:38 51°22.642 3°9.451 36.3 3.3 32.3 13.2
2002-09-18 07:57:44 51°22.646 3°9.455 36.7 3.1 32.1 13.4
2002-09-18 07:57:49 51°22.649 3°9.459 36.8 3 32 13.2
2002-09-18 07:57:53 51°22.652 3°9.462 36.8 2.9 32 13.5
2002-09-18 07:57:58 51°22.655 3°9.465 36.8 2.8 33.3 13.4
2002-09-18 07:58:04 51°22.659 3°9.469 36.3 2.7 33 13.1
2002-09-18 07:58:08 51°22.661 3°9.471 36.5 2.6 32.2 13.4
2002-09-18 07:58:14 51°22.665 3°9.475 37 2.6 31.9 13.5
2002-09-18 07:58:17 51°22.667 3°9.476 36.7 2.5 31.9 13.5
2002-09-18 07:58:22 51°22.669 3°9.479 36.7 2.4 31.8 13.6
2002-09-18 07:58:29 51°22.673 3°9.483 36.7 2.3 32.3 13.6
2002-09-18 07:58:33 51°22.675 3°9.485 36.7 2.2 32.2 13.7
2002-09-18 07:58:38 51°22.678 3°9.487 37.2 2.2 32.3 13.6
2002-09-18 07:58:42 51°22.68 3°9.489 37 2.1 31.3 13.6
2002-09-18 07:58:49 51°22.683 3°9.493 36.5 2.1 31.8 13.5
2002-09-18 07:58:53 51°22.685 3°9.494 36.5 2 31 13.5
2002-09-18 07:58:58 51°22.687 3°9.497 36.5 1.9 31.6 13.5
2002-09-18 07:59:04 51°22.69 3°9.499 36.7 1.9 31 13.6
2002-09-18 07:59:09 51°22.692 3°9.501 36.7 1.9 31.1 13.5
2002-09-18 07:59:13 51°22.694 3°9.503 36.5 1.8 31.8 13.4
2002-09-18 07:59:19 51°22.696 3°9.505 36.3 1.7 30.5 13.6
2002-09-18 07:59:23 51°22.698 3°9.506 36.5 1.7 30.5 13.6
2002-09-18 07:59:29 51°22.7 3°9.509 36.5 1.6 30.1 13.4
2002-09-18 07:59:33 51°22.701 3°9.51 36.5 1.6 30.7 13.4
2002-09-18 07:59:37 51°22.703 3°9.512 36.3 1.5 31.1 13.6
2002-09-18 07:59:42 51°22.704 3°9.513 35.8 1.5 31.3 13.6
2002-09-18 07:59:49 51°22.707 3°9.516 35.3 1.4 31.5 13.6
2002-09-18 07:59:53 51°22.708 3°9.517 34.3 1.3 30.8 13.6
2002-09-18 07:59:59 51°22.71 3°9.518 33.8 1.3 29.6 13.6
2002-09-18 08:00:02 51°22.711 3°9.519 33.5 1.2 27.3 13.7
2002-09-18 08:00:09 51°22.713 3°9.521 33.3 1.2 29 13.7
2002-09-18 08:00:13 51°22.714 3°9.521 33 1.1 27.7 13.7
2002-09-18 08:00:19 51°22.715 3°9.522 33.5 1 25.8 13.7
2002-09-18 08:00:22 51°22.716 3°9.523 34.5 0.9 26.6 13.7
2002-09-18 08:00:29 51°22.718 3°9.524 34.7 0.9 26 13.8
2002-09-18 08:00:33 51°22.718 3°9.525 35.2 0.9 21.5 13.7
2002-09-18 08:00:38 51°22.719 3°9.525 35.5 0.8 23.5 13.7
2002-09-18 08:00:44 51°22.721 3°9.526 35.7 0.8 24.2 13.7
2002-09-18 08:00:49 51°22.722 3°9.527 35 0.8 25.1 13.7
2002-09-18 08:00:53 51°22.722 3°9.528 34.2 0.8 25.1 13.7
2002-09-18 08:00:58 51°22.724 3°9.528 33.7 0.7 22.3 13.7
2002-09-18 08:01:04 51°22.725 3°9.529 33.3 0.7 22.5 13.7
2002-09-18 08:01:09 51°22.725 3°9.53 32.8 0.7 22.5 13.7
2002-09-18 08:01:14 51°22.726 3°9.53 32.5 0.7 19.9 13.7
2002-09-18 08:01:19 51°22.727 3°9.531 32 0.7 19.9 13.7
2002-09-18 08:01:24 51°22.728 3°9.531 31 0.7 18.8 13.7
2002-09-18 08:01:29 51°22.729 3°9.532 29.8 0.7 17.1 13.7
2002-09-18 08:01:34 51°22.73 3°9.532 28.8 0.7 14.9 13.7
2002-09-18 08:01:38 51°22.731 3°9.533 27.3 0.7 15.4 13.7
2002-09-18 08:01:44 51°22.732 3°9.533 25.5 0.7 13.5 13.7
2002-09-18 08:01:49 51°22.733 3°9.533 23.8 0.7 12.6 13.7
2002-09-18 08:01:54 51°22.734 3°9.533 21.8 0.7 9.8 13.7
2002-09-18 08:01:58 51°22.735 3°9.533 20.3 0.7 10.1 13.7
2002-09-18 08:02:04 51°22.736 3°9.533 18.5 0.7 6 13.7
2002-09-18 08:02:09 51°22.737 3°9.534 16.7 0.7 5.3 13.7
2002-09-18 08:02:13 51°22.738 3°9.534 15 0.7 5.1 13.7
2002-09-18 08:02:19 51°22.739 3°9.534 13.3 0.7 4 13.6
2002-09-18 08:02:23 51°22.74 3°9.533 11.8 0.7 356.7 13.6
2002-09-18 08:02:29 51°22.741 3°9.533 10.5 0.7 353.8 13.6
2002-09-18 08:02:34 51°22.742 3°9.533 8.5 0.7 351.3 13.6
2002-09-18 08:02:38 51°22.743 3°9.533 6.5 0.7 353.4 13.6
2002-09-18 08:02:44 51°22.744 3°9.532 4.5 0.7 351.5 13.6
2002-09-18 08:02:49 51°22.745 3°9.532 2.8 0.7 350 13.6
2002-09-18 08:02:54 51°22.746 3°9.531 0.8 0.7 345.9 13.6
2002-09-18 08:02:58 51°22.747 3°9.531 358.8 0.7 341.5 13.7
2002-09-18 08:03:04 51°22.748 3°9.53 356.3 0.6 335.8 13.7
2002-09-18 08:03:08 51°22.748 3°9.53 354.2 0.7 329.9 13.7
2002-09-18 08:03:13 51°22.749 3°9.529 352 0.7 328 13.7
2002-09-18 08:03:19 51°22.75 3°9.528 349.8 0.7 323.6 13.7
2002-09-18 08:03:24 51°22.751 3°9.527 347.5 0.7 322.3 13.7
2002-09-18 08:03:29 51°22.751 3°9.525 345.3 0.7 316.8 13.7
2002-09-18 08:03:34 51°22.752 3°9.524 343.2 0.7 315.8 13.8
2002-09-18 08:03:38 51°22.753 3°9.523 341 0.7 309 13.7
2002-09-18 08:03:44 51°22.754 3°9.522 338.7 0.7 308.4 13.7
2002-09-18 08:03:49 51°22.754 3°9.52 336.5 0.8 305.9 13.7
2002-09-18 08:03:54 51°22.755 3°9.519 334.5 0.8 305.6 13.7
2002-09-18 08:03:58 51°22.755 3°9.517 332.3 0.8 303.3 13.6
2002-09-18 08:04:04 51°22.756 3°9.515 330.3 0.8 302.1 13.7
2002-09-18 08:04:08 51°22.757 3°9.514 328.3 0.9 301 13.7
2002-09-18 08:04:13 51°22.757 3°9.512 326.3 0.9 297 13.7
2002-09-18 08:04:18 51°22.758 3°9.51 324.2 0.9 292.9 13.7
2002-09-18 08:04:24 51°22.758 3°9.508 321.8 0.9 291.1 13.7
2002-09-18 08:04:29 51°22.759 3°9.506 319.7 0.9 289.5 13.7
2002-09-18 08:04:34 51°22.759 3°9.504 317.7 0.9 287.8 13.7
2002-09-18 08:04:38 51°22.759 3°9.503 315.2 0.9 284.1 13.7
2002-09-18 08:04:44 51°22.76 3°9.501 312.8 0.9 283.1 13.8
2002-09-18 08:04:49 51°22.76 3°9.498 311 0.9 283.1 13.7
2002-09-18 08:04:54 51°22.76 3°9.496 308.8 1 281.8 13.7
2002-09-18 08:04:58 51°22.761 3°9.495 307 1 280.4 13.7
2002-09-18 08:05:04 51°22.761 3°9.492 304.8 1 276.6 13.7
2002-09-18 08:05:09 51°22.761 3°9.49 302.8 1 273.3 13.7
2002-09-18 08:05:14 51°22.761 3°9.488 300.8 1 271.7 13.7
2002-09-18 08:05:19 51°22.761 3°9.485 298.7 1 270.9 13.7
2002-09-18 08:05:24 51°22.761 3°9.483 297 1.1 268.6 13.7
2002-09-18 08:05:29 51°22.761 3°9.481 295.2 1 271.3 13.7
2002-09-18 08:05:34 51°22.761 3°9.478 293 1.1 268.9 13.7
2002-09-18 08:05:38 51°22.761 3°9.476 291.5 1.1 266.6 13.7
2002-09-18 08:05:44 51°22.761 3°9.473 289.8 1.1 266.1 13.7
2002-09-18 08:05:49 51°22.76 3°9.472 287.8 1.1 261.8 13.6
2002-09-18 08:05:54 51°22.76 3°9.469 286 1.1 259.8 13.6
2002-09-18 08:05:58 51°22.76 3°9.467 284 1.2 260.3 13.6
2002-09-18 08:06:02 51°22.76 3°9.464 282.2 1.2 257.4 13.6
2002-09-18 08:06:09 51°22.759 3°9.46 280.8 1.2 256.1 13.5
2002-09-18 08:06:14 51°22.759 3°9.458 278.7 1.2 256.2 13.5
2002-09-18 08:06:17 51°22.758 3°9.457 276.8 1.2 253.2 13.6
2002-09-18 08:06:24 51°22.758 3°9.453 275.3 1.2 253.1 13.5
2002-09-18 08:06:29 51°22.757 3°9.451 273.8 1.2 250.7 13.4
2002-09-18 08:06:34 51°22.757 3°9.449 272 1.2 248.6 13.3
2002-09-18 08:06:38 51°22.756 3°9.447 270.7 1.2 245.3 13.4
2002-09-18 08:06:44 51°22.756 3°9.444 269.3 1.1 246.8 13.4
2002-09-18 08:06:48 51°22.755 3°9.442 268 1.1 246.5 13.4
2002-09-18 08:06:54 51°22.754 3°9.44 267.2 1.1 245.4 13.5
2002-09-18 08:06:57 51°22.754 3°9.438 266.3 1.1 242.9 13.5
2002-09-18 08:07:04 51°22.753 3°9.435 265 1.2 241.8 13.5
2002-09-18 08:07:09 51°22.752 3°9.433 264.2 1.1 243.3 13.5
2002-09-18 08:07:14 51°22.751 3°9.431 263.5 1.1 239.7 13.5
2002-09-18 08:07:19 51°22.75 3°9.429 263 1.1 240.3 13.5
2002-09-18 08:07:24 51°22.75 3°9.426 262.5 1.1 241.1 13.5
2002-09-18 08:07:29 51°22.749 3°9.424 262.2 1.1 239.4 13.5
2002-09-18 08:07:34 51°22.748 3°9.422 261.5 1.2 236.9 13.5
2002-09-18 08:07:38 51°22.748 3°9.42 261.2 1.2 238.2 13.6
2002-09-18 08:07:44 51°22.747 3°9.417 260.7 1.2 240.7 13.6
2002-09-18 08:07:49 51°22.746 3°9.415 260.5 1.2 237.1 13.6
2002-09-18 08:07:54 51°22.745 3°9.413 260.5 1.2 239.8 13.6
2002-09-18 08:07:58 51°22.744 3°9.411 260 1.2 240.5 13.6
2002-09-18 08:08:04 51°22.743 3°9.409 259.3 1.2 237.2 13.6
2002-09-18 08:08:08 51°22.742 3°9.407 259 1.2 236 13.6
2002-09-18 08:08:13 51°22.741 3°9.405 258.8 1.2 237.2 13.7
2002-09-18 08:08:19 51°22.74 3°9.403 258.2 1.1 235.7 13.7
2002-09-18 08:08:24 51°22.739 3°9.401 257.7 1.1 231.5 13.7
2002-09-18 08:08:29 51°22.739 3°9.399 257.7 1 231.5 13.7
2002-09-18 08:08:34 51°22.738 3°9.398 257.2 0.9 226.1 13.6
2002-09-18 08:08:36 51°22.738 3°9.398 256.3 0.8 224.5 13.6
2002-09-18 08:08:45 51°22.736 3°9.396 255.5 0.8 224.1 13.7
2002-09-18 08:08:50 51°22.736 3°9.395 255.3 0.7 219.4 13.7
2002-09-18 08:08:55 51°22.735 3°9.394 254.7 0.6 213.2 13.7
2002-09-18 08:09:00 51°22.734 3°9.393 253.7 0.6 210.4 13.7
2002-09-18 08:09:05 51°22.734 3°9.393 253.2 0.6 214.9 13.7
2002-09-18 08:09:10 51°22.733 3°9.392 252.5 0.6 214.3 13.6
2002-09-18 08:09:14 51°22.732 3°9.391 252 0.7 215.2 13.7